• In Portugal
  • List of Countries
  • For 7 days
  • Water Temperature
  • Satellite Maps
  • Weather Map
  • Weather Widgets
  • user-avatar
    Login

    Hourly Weather Encamp

    Today, 23 April, Monday

    Time Temperature Precipitation Wind Pressure Humidity
    00:00 +8°C° 0 mm 1 mps 625 mmHg 76%
    01:00 +8°C° 0 mm 1 mps 625 mmHg 74%
    02:00 +8°C° 0 mm 1 mps 625 mmHg 73%
    03:00 +7°C° 0 mm 1 mps 625 mmHg 71%
    04:00 +8°C° 0 mm 1 mps 625 mmHg 70%
    05:00 +8°C° 0 mm 1 mps 625 mmHg 70%
    06:00 +8°C° 0 mm 1 mps 626 mmHg 69%
    07:00 +10°C° 0 mm 1 mps 627 mmHg 62%
    08:00 +13°C° 0 mm 1 mps 628 mmHg 55%
    09:00 +15°C° 0 mm 1 mps 629 mmHg 48%
    10:00 +16°C° 0 mm 2 mps 629 mmHg 48%
    11:00 +16°C° 0 mm 2 mps 629 mmHg 48%
    12:00 +17°C° 0 mm 2 mps 630 mmHg 48%
    13:00 +17°C° 0.3 mm 2 mps 629 mmHg 50%
    14:00 +16°C° 0.3 mm 2 mps 629 mmHg 53%
    15:00 +16°C° 0.3 mm 2 mps 629 mmHg 56%
    16:00 +15°C° 0.3 mm 1 mps 628 mmHg 62%
    17:00 +13°C° 0.3 mm 1 mps 628 mmHg 68%
    18:00 +12°C° 0.3 mm 1 mps 627 mmHg 75%
    19:00 +11°C° 0.3 mm 1 mps 627 mmHg 77%
    20:00 +10°C° 0.3 mm 1 mps 627 mmHg 79%
    21:00 +8°C° 0.3 mm 0 mps 627 mmHg 80%
    22:00 +9°C° 0 mm 1 mps 627 mmHg 80%
    23:00 +9°C° 0 mm 1 mps 626 mmHg 80%

    Tomorrow, 24 April, Tuesday

    Time Temperature Precipitation Wind Pressure Humidity
    00:00 +8°C° 0 mm 1 mps 626 mmHg 80%
    01:00 +8°C° 0 mm 1 mps 626 mmHg 80%
    02:00 +8°C° 0 mm 1 mps 626 mmHg 79%
    03:00 +8°C° 0 mm 1 mps 626 mmHg 79%
    04:00 +8°C° 0 mm 1 mps 626 mmHg 77%
    05:00 +8°C° 0 mm 1 mps 626 mmHg 75%
    06:00 +9°C° 0 mm 1 mps 626 mmHg 74%
    07:00 +11°C° 0 mm 1 mps 627 mmHg 66%
    08:00 +13°C° 0 mm 1 mps 628 mmHg 57%
    09:00 +16°C° 0 mm 1 mps 629 mmHg 49%
    10:00 +18°C° 0 mm 1 mps 629 mmHg 47%
    11:00 +17°C° 0 mm 2 mps 630 mmHg 44%
    12:00 +18°C° 0 mm 2 mps 630 mmHg 41%
    13:00 +18°C° 0.2 mm 2 mps 630 mmHg 43%
    14:00 +18°C° 0.2 mm 2 mps 629 mmHg 44%
    15:00 +18°C° 0.2 mm 2 mps 629 mmHg 45%
    16:00 +16°C° 0.2 mm 2 mps 628 mmHg 52%
    17:00 +15°C° 0.2 mm 1 mps 628 mmHg 59%
    18:00 +14°C° 0.2 mm 1 mps 627 mmHg 66%
    19:00 +12°C° 0 mm 1 mps 627 mmHg 68%
    20:00 +11°C° 0 mm 1 mps 627 mmHg 69%
    21:00 +10°C° 0 mm 1 mps 626 mmHg 70%
    22:00 +10°C° 0 mm 1 mps 626 mmHg 71%
    23:00 +9°C° 0 mm 1 mps 626 mmHg 71%

    Day after tomorrow, 25 April, Wednesday

    Time Temperature Precipitation Wind Pressure Humidity
    00:00 +9°C° 0 mm 1 mps 626 mmHg 71%
    01:00 +8°C° 0 mm 1 mps 625 mmHg 69%
    02:00 +8°C° 0 mm 1 mps 625 mmHg 67%
    03:00 +8°C° 0 mm 1 mps 625 mmHg 66%
    04:00 +8°C° 0 mm 1 mps 625 mmHg 65%
    05:00 +9°C° 0 mm 1 mps 625 mmHg 64%
    06:00 +9°C° 0 mm 1 mps 626 mmHg 64%
    07:00 +11°C° 0 mm 1 mps 627 mmHg 59%
    08:00 +13°C° 0 mm 1 mps 628 mmHg 54%
    09:00 +15°C° 0 mm 1 mps 629 mmHg 49%
    10:00 +16°C° 0.1 mm 1 mps 629 mmHg 49%
    11:00 +16°C° 0.1 mm 1 mps 629 mmHg 50%
    12:00 +18°C° 0.1 mm 1 mps 629 mmHg 50%
    13:00 +16°C° 0.4 mm 1 mps 629 mmHg 54%
    14:00 +16°C° 0.4 mm 1 mps 628 mmHg 57%
    15:00 +15°C° 0.4 mm 1 mps 628 mmHg 61%
    16:00 +14°C° 0.5 mm 1 mps 627 mmHg 66%
    17:00 +13°C° 0.5 mm 1 mps 627 mmHg 71%
    18:00 +12°C° 0.5 mm 1 mps 627 mmHg 75%
    19:00 +11°C° 0.3 mm 1 mps 627 mmHg 79%
    20:00 +10°C° 0.3 mm 1 mps 627 mmHg 82%
    21:00 +10°C° 0.3 mm 1 mps 627 mmHg 85%
    22:00 +8°C° 0.1 mm 2 mps 626 mmHg 86%
    23:00 +8°C° 0.1 mm 2 mps 626 mmHg 88%

    26 April, Thursday

    Time Temperature Precipitation Wind Pressure Humidity
    00:00 +8°C° 0.1 mm 2 mps 626 mmHg 90%
    01:00 +7°C° 0.1 mm 2 mps 626 mmHg 90%
    02:00 +7°C° 0.1 mm 2 mps 625 mmHg 91%
    03:00 +7°C° 0.1 mm 2 mps 625 mmHg 91%
    04:00 +7°C° 0.1 mm 2 mps 625 mmHg 91%
    05:00 +7°C° 0.1 mm 2 mps 625 mmHg 90%
    06:00 +7°C° 0.1 mm 2 mps 625 mmHg 89%
    07:00 +8°C° 0.1 mm 2 mps 625 mmHg 85%
    08:00 +9°C° 0.1 mm 2 mps 626 mmHg 80%
    09:00 +10°C° 0.1 mm 2 mps 626 mmHg 75%
    10:00 +10°C° 0.1 mm 2 mps 626 mmHg 73%
    11:00 +12°C° 0.1 mm 2 mps 626 mmHg 70%
    12:00 +13°C° 0.1 mm 2 mps 626 mmHg 68%
    13:00 +13°C° 0.3 mm 2 mps 625 mmHg 68%
    14:00 +13°C° 0.3 mm 2 mps 625 mmHg 68%
    15:00 +13°C° 0.3 mm 2 mps 625 mmHg 69%
    16:00 +12°C° 0.4 mm 2 mps 624 mmHg 73%
    17:00 +10°C° 0.4 mm 2 mps 624 mmHg 78%
    18:00 +10°C° 0.4 mm 1 mps 623 mmHg 83%
    19:00 +9°C° 0.1 mm 1 mps 623 mmHg 86%
    20:00 +8°C° 0.1 mm 1 mps 623 mmHg 88%
    21:00 +7°C° 0.1 mm 1 mps 623 mmHg 91%
    22:00 +7°C° 0 mm 1 mps 622 mmHg 91%
    23:00 +6°C° 0 mm 1 mps 622 mmHg 90%

    27 April, Friday

    Time Temperature Precipitation Wind Pressure Humidity
    00:00 +6°C° 0 mm 1 mps 621 mmHg 90%
    01:00 +5°C° 0 mm 1 mps 621 mmHg 90%
    02:00 +5°C° 0 mm 1 mps 620 mmHg 90%
    03:00 +4°C° 0 mm 0 mps 620 mmHg 90%
    04:00 +5°C° 0 mm 1 mps 620 mmHg 89%
    05:00 +6°C° 0 mm 1 mps 620 mmHg 88%
    06:00 +7°C° 0 mm 1 mps 620 mmHg 87%
    07:00 +8°C° 0 mm 1 mps 621 mmHg 80%
    08:00 +10°C° 0 mm 1 mps 622 mmHg 72%
    09:00 +12°C° 0 mm 2 mps 622 mmHg 65%
    10:00 +13°C° 0.1 mm 2 mps 622 mmHg 63%
    11:00 +14°C° 0.1 mm 2 mps 622 mmHg 62%
    12:00 +13°C° 0.1 mm 3 mps 622 mmHg 60%
    13:00 +13°C° 0.5 mm 3 mps 622 mmHg 62%
    14:00 +13°C° 0.5 mm 3 mps 621 mmHg 65%
    15:00 +13°C° 0.5 mm 2 mps 621 mmHg 67%
    16:00 +12°C° 0.5 mm 2 mps 620 mmHg 73%
    17:00 +10°C° 0.5 mm 2 mps 620 mmHg 78%
    18:00 +9°C° 0.5 mm 2 mps 619 mmHg 84%
    19:00 +8°C° 0.4 mm 2 mps 619 mmHg 87%
    20:00 +7°C° 0.4 mm 2 mps 619 mmHg 90%
    21:00 +6°C° 0.4 mm 2 mps 619 mmHg 93%
    22:00 +6°C° 0.6 mm 2 mps 618 mmHg 93%
    23:00 +6°C° 0.6 mm 2 mps 618 mmHg 93%

    28 April, Saturday

    Time Temperature Precipitation Wind Pressure Humidity
    00:00 +5°C° 0.6 mm 2 mps 618 mmHg 93%
    01:00 +5°C° 0.2 mm 2 mps 617 mmHg 93%
    02:00 +5°C° 0.2 mm 2 mps 617 mmHg 93%
    03:00 +5°C° 0.2 mm 2 mps 616 mmHg 93%
    04:00 +5°C° 0 mm 2 mps 616 mmHg 92%
    05:00 +5°C° 0 mm 2 mps 616 mmHg 91%
    06:00 +5°C° 0 mm 2 mps 616 mmHg 91%
    07:00 +7°C° 0 mm 2 mps 617 mmHg 83%
    08:00 +8°C° 0 mm 2 mps 617 mmHg 76%
    09:00 +9°C° 0 mm 3 mps 618 mmHg 68%
    10:00 +10°C° 0.2 mm 3 mps 618 mmHg 65%
    11:00 +10°C° 0.2 mm 3 mps 619 mmHg 61%
    12:00 +11°C° 0.2 mm 4 mps 619 mmHg 57%
    13:00 +10°C° 0.1 mm 4 mps 619 mmHg 57%
    14:00 +8°C° 0.1 mm 4 mps 619 mmHg 57%
    15:00 +9°C° 0.1 mm 3 mps 619 mmHg 58%
    16:00 +7°C° 0.1 mm 3 mps 619 mmHg 64%
    17:00 +5°C° 0.1 mm 3 mps 618 mmHg 70%
    18:00 +4°C° 0.1 mm 2 mps 618 mmHg 76%
    19:00 +3°C° 0.1 mm 2 mps 618 mmHg 80%
    20:00 +2°C° 0.1 mm 2 mps 618 mmHg 84%
    21:00 +1°C° 0.1 mm 2 mps 618 mmHg 87%
    22:00 -1°C° 0 mm 2 mps 618 mmHg 87%
    23:00 -1°C° 0 mm 2 mps 618 mmHg 87%
    Show more